[Iaude] MPEC C34: 2024 CD [a=1.91,e=0.51,i=6.9,H=25.5]

mpec at marsden.cfa.harvard.edu mpec at marsden.cfa.harvard.edu
Sat Feb 3 01:28:04 EST 2024


M.P.E.C. 2024-C34                              Issued 2024 February 3, 06:26 UT

     The Minor Planet Electronic Circulars contain information on unusual
         minor planets, routine data on comets and natural satellites,
         and occasional editorial announcements.  They are published
    on behalf of Division F of the International Astronomical Union by the
          Minor Planet Center, Smithsonian Astrophysical Observatory,
                          Cambridge, MA 02138, U.S.A.
			  
             Prepared using the Tamkin Foundation Computer Network

                              MPC at CFA.HARVARD.EDU
            URL https://www.minorplanetcenter.net/    ISSN 1523-6714

                                    2024 CD                                     


Observations:
     K24C00D* C2024 02 01.41828909 45 38.818+42 36 06.04         21.84wXEC034F52
     K24C00D  C2024 02 01.42938509 45 41.167+42 35 44.40         21.40wXEC034F52
     K24C00D  C2024 02 01.45161509 45 45.895+42 35 00.14         21.88wXEC034F52
     K24C00D  C2024 02 01.57820509 46 12.553+42 30 27.59         21.08GVEC034F52
     K24C00D  C2024 02 01.57885009 46 12.662+42 30 26.33         21.03GVEC034F52
     K24C00D 7C2024 02 02.13989609 48 32.286+42 11 21.09               VEC034Z84
     K24C00D 7C2024 02 02.15629009 48 35.556+42 10 46.30         20.7 GVEC034Z84
     K24C00D 7C2024 02 02.17272209 48 38.911+42 10 10.72         20.9 GVEC034Z84
     K24C00D KC2024 02 02.25685109 49 04.49 +42 07 36.5          21.4 GVEC034H21
     K24C00D KC2024 02 02.26545409 49 06.15 +42 07 20.5          21.4 GVEC034H21
     K24C00D KC2024 02 02.27271809 49 07.52 +42 07 06.9          21.2 GVEC034H21
     K24C00D KC2024 02 03.24299309 52 36.23 +41 37 03.9          21.9 GVEC034H21
     K24C00D KC2024 02 03.24858609 52 37.10 +41 36 54.7          21.8 GVEC034H21
     K24C00D KC2024 02 03.25417709 52 37.97 +41 36 45.0          22.0 GVEC034H21

Observer details:
F52 Pan-STARRS 2, Haleakala.  Observers J. Herman, T. Lowe, P. Minguez, A.
    Schultz, I. Smith.  Measurers K. Chambers, T. de Boer, J. Fairlamb, H.
    Gao, M. Huber, C.-C. Lin, E. Magnier, Y. Ramanjooloo, R. Wainscoat, R.
    Weryk.  1.8-m Ritchey-Chretien + CCD.
H21 Astronomical Research Observatory, Westfield.  Observer R. Holmes.
    Measurers T. Linder, R. Holmes, L. Horn.  0.81-m f/4.0 astrograph + CCD,
    0.76-m f/3.0 astrograph + CCD.
Z84 Calar Alto-Schmidt.  Observers F. Ocana, R. Kresken, M. Micheli, L.
    Conversi.  Measurers F. Ocana, M. Micheli.  0.8-m f/3 Schmidt + CCD.

Orbital elements:
2024 CD                                                  Earth MOID = 0.0001 AU
Epoch 2023 Sept. 13.0 TT = JDT 2460200.5                MPC                     
M 322.45671              (2000.0)            P               Q                  
n   0.37296498     Peri.  328.43687     +0.13498584     -0.98471033             
a   1.9114254      Node   113.60431     +0.93227099     +0.08857642             
e   0.5103683      Incl.    6.90160     +0.33563317     +0.14999925             
P   2.64           H   25.52          G   0.15           U   8                  
Residuals in seconds of arc
240201 F52  0.2+  0.1+    240202 Z84  0.0   0.2+    240202 H21  0.0   0.0
240201 F52  0.1-  0.1+    240202 Z84  0.2-  0.5+    240203 H21  0.3+  0.2-
240201 F52  0.1+  0.1-    240202 Z84  0.1+  0.4+    240203 H21  0.0   0.2+
240201 F52  0.2+  0.1-    240202 H21  0.1-  0.3-    240203 H21  0.3-  0.1+
240201 F52  0.1-  0.1+    240202 H21  0.1+  0.1-

Ephemeris:
2024 CD                  a,e,i = 1.91, 0.51, 7                   q = 0.9359
Date    TT    R. A. (2000) Decl.     Delta      r    Elong.  Phase     V
2024 01 04    23 38 09.5 -24 45 47   0.08528 0.9489    63.9   111.4    24.3
...
2024 01 19    03 54 55.3 +39 28 52   0.02288 0.9971   124.7    54.2    19.3
...
2024 01 27    09 04 31.6 +46 40 52   0.05672 1.0347   151.4    27.1    20.6
...
2024 02 02    09 48 02.4 +42 15 57   0.09124 1.0673   152.8    25.0    21.6
2024 02 03    09 51 45.2 +41 44 22   0.09723 1.0731   153.0    24.7    21.8
2024 02 04    09 54 56.3 +41 15 11   0.1033  1.0789   153.2    24.3    21.9
...
2024 02 10    10 06 56.4 +38 54 44   0.1408  1.1154   154.5    22.4    22.6
...
2024 02 18    10 13 50.1 +36 33 42   0.1944  1.1676   155.3    20.7    23.3
...
2024 03 04    10 19 20.5 +32 48 53   0.3089  1.2727   152.0    21.4    24.5

A. U. Tomatic                (C) Copyright 2024 MPC           M.P.E.C. 2024-C34





More information about the Iaude mailing list